Flag for Germany Weather past 2 weeks in Bad Vilbel, Hesse, Germany

Now
95 °F

Partly sunny.


Feels Like: 93 °F
Forecast: 60 / 71 °F
Wind: 6 mph from Southwest

Location: Frankfurt / M-Flughafen

Current Time: Jul 7, 2015 at 5:44:16 PM

Latest Report: Jul 7, 2015 at 5:00 PM


Visibility: 31 mi

Pressure: 29.72 "Hg

Humidity: 27%

Dew point: 56 °F

Location of Bad VilbelLocation

Historic Weather in Bad Vilbel — Graph

°F

Bad Vilbel temperature yesterday

Maximum temperature yesterday: 83 °F (at 7:00 PM)
Minimum temperature yesterday: 62 °F (at 6:00 AM)
Average temperature yesterday: 74 °F

Past Weeks' High & Low Weather Summary

 TemperatureHumidityPressure
High100 °F (Jul 4, 6:00 PM)100% (Jun 27, 8:00 AM)30.23 "Hg (Jun 27, 8:00 AM)
Low49 °F (Jun 23, 6:00 AM)21% (Jun 30, 7:00 PM)29.70 "Hg (Jun 22, 11:00 PM)
Average72 °F59%30.08 "Hg
* Reported Jun 22 4:00 PM — Jul 7 4:00 PM, Bad Vilbel, Weather by CustomWeather, © 2015

Note: Actual official high and low records may vary slightly from our data, if they occured in-between our weather recording intervals... More about our weather records

Advertising

Bad Vilbel weather history for previous 24 hours

 ConditionsComfort  
Time TempWeatherWind HumidityBarometerVisibility
4:00 PM
Tue, Jul 7
92 °FPartly sunny.6 mph25%29.75 "Hg37 mi
3:00 PM92 °FScattered clouds.6 mph24%29.78 "Hg37 mi
2:00 PM91 °FScattered clouds.3 mph25%29.82 "Hg37 mi
1:00 PM88 °FScattered clouds.2 mph30%29.85 "Hg37 mi
12:00 PM86 °FPassing clouds.2 mph32%29.87 "Hg37 mi
10:00 AM78 °FScattered clouds.1 mph34%29.93 "Hg37 mi
9:00 AM74 °FScattered clouds.2 mph44%29.95 "Hg37 mi
8:00 AM69 °FPassing clouds.2 mph53%29.96 "Hg37 mi
7:00 AM66 °FPassing clouds.2 mph59%29.98 "Hg37 mi
6:00 AM64 °FPassing clouds.2 mph63%30.00 "Hg37 mi
4:00 AM67 °FPassing clouds.2 mph56%30.01 "Hg40 mi
3:00 AM67 °FClear.2 mph54%30.02 "Hg40 mi
2:00 AM70 °FClear.2 mph49%30.03 "Hg40 mi
1:00 AM69 °FClear.1 mph53%30.05 "Hg40 mi
12:00 AM69 °FPassing clouds.2 mph50%30.06 "Hg40 mi
10:00 PM
Mon, Jul 6
77 °FPassing clouds.2 mph34%30.06 "Hg43 mi
9:00 PM78 °FSunny.2 mph34%30.06 "Hg40 mi
8:00 PM83 °FSunny.3 mph22%30.06 "Hg37 mi
7:00 PM83 °FSunny.5 mph22%30.07 "Hg37 mi
6:00 PM83 °FSunny.5 mph22%30.08 "Hg37 mi
Weather by CustomWeather, © 2015

See weather overviewHow to use our weather pages